,,Stat1,,Stat2,,Stat3,,Stat4,,Wind1,,Wind1,
time,status,PR1M_SUM,status,RH1M_AVG,status,SR1M_AVG,status,TA1M_AVG,status,W1dAve1m,status,W1sAve1m,
2000-02-19, 00:01:00,VALID,0,VALID,86.74,VALID,0.0339617,VALID,19.5047,VALID,130,VALID,0,
2000-02-19, 00:02:00,VALID,0,VALID,86.9371,VALID,0.0339617,VALID,19.4627,VALID,130,VALID,0,
2000-02-19, 00:03:00,VALID,0,VALID,87.1583,VALID,0.0339617,VALID,19.4431,VALID,130,VALID,0,
2000-02-19, 00:04:00,VALID,0,VALID,87.3135,VALID,0.0169808,VALID,19.4242,VALID,130,VALID,0,
2000-02-19, 00:05:00,VALID,0,VALID,87.3109,VALID,0,VALID,19.4147,VALID,130,VALID,0,
2000-02-19, 00:06:00,VALID,0,VALID,87.4762,VALID,0.0169808,VALID,19.4013,VALID,130,VALID,0,
2000-02-19, 00:07:00,VALID,0,VALID,87.8602,VALID,0.0509425,VALID,19.3822,VALID,130,VALID,0,
2000-02-19, 00:08:00,VALID,0,VALID,87.8819,VALID,0.0169808,VALID,19.3273,VALID,117,VALID,0,
2000-02-19, 00:09:00,VALID,0,VALID,87.4254,VALID,0.0339617,VALID,19.2982,VALID,107,VALID,0,
2000-02-19, 00:10:00,VALID,0,VALID,87.3033,VALID,0.0169808,VALID,19.3017,VALID,107,VALID,0,
2000-02-19, 00:11:00,VALID,0,VALID,87.9022,VALID,0.0679233,VALID,19.3176,VALID,108,VALID,0,
2000-02-19, 00:12:00,VALID,0,VALID,88.0217,VALID,0.0339617,VALID,19.3178,VALID,109,VALID,0,
2000-02-19, 00:13:00,VALID,0,VALID,87.8157,VALID,0.0339617,VALID,19.301,VALID,109,VALID,0,
2000-02-19, 00:14:01,VALID,0,VALID,87.5512,VALID,0.0509425,VALID,19.3111,VALID,109,VALID,0,
2000-02-19, 00:15:00,VALID,0,VALID,87.5462,VALID,0,VALID,19.3141,VALID,109,VALID,0,
2000-02-19, 00:16:00,VALID,0,VALID,87.9404,VALID,0.0509425,VALID,19.301,VALID,107,VALID,0,
2000-02-19, 00:17:00,VALID,0,VALID,87.054,VALID,0,VALID,19.2888,VALID,86,VALID,0,
2000-02-19, 00:18:00,VALID,0,VALID,87.0998,VALID,0.0509425,VALID,19.3241,VALID,89,VALID,0,
2000-02-19, 00:19:00,VALID,0,VALID,86.9638,VALID,0.0169808,VALID,19.3241,VALID,75,VALID,0,
2000-02-19, 00:20:00,VALID,0,VALID,85.9439,VALID,0.0169808,VALID,19.3593,VALID,91,VALID,0,
2000-02-19, 00:21:00,VALID,0,VALID,86.1754,VALID,0,VALID,19.4344,VALID,106,VALID,0,
2000-02-19, 00:22:00,VALID,0,VALID,86.0571,VALID,0.0509425,VALID,19.4532,VALID,111,VALID,0,
2000-02-19, 00:23:00,VALID,0,VALID,86.328,VALID,0.0339617,VALID,19.4634,VALID,112,VALID,0,
2000-02-19, 00:24:00,VALID,0,VALID,86.1436,VALID,0.0169808,VALID,19.46,VALID,112,VALID,0,
2000-02-19, 00:25:01,VALID,0,VALID,85.6858,VALID,-0.0849042,VALID,19.497,VALID,112,VALID,0,
2000-02-19, 00:26:00,VALID,0,VALID,85.6133,VALID,-0.101885,VALID,19.5322,VALID,112,VALID,0,
2000-02-19, 00:27:00,VALID,0,VALID,86.2669,VALID,-0.101885,VALID,19.5745,VALID,112,VALID,0,
2000-02-19, 00:28:00,VALID,0,VALID,85.7596,VALID,-0.0849042,VALID,19.5904,VALID,112,VALID,0,
2000-02-19, 00:29:00,VALID,0,VALID,86.4996,VALID,-0.0849042,VALID,19.6098,VALID,112,VALID,0,
2000-02-19, 00:30:00,VALID,0,VALID,86.2237,VALID,-0.0849042,VALID,19.6162,VALID,112,VALID,0,
2000-02-19, 00:31:00,VALID,0,VALID,85.9923,VALID,-0.101885,VALID,19.6003,VALID,112,VALID,0,
2000-02-19, 00:32:00,VALID,0,VALID,84.315,VALID,-0.0849042,VALID,19.6197,VALID,103,VALID,0,
2000-02-19, 00:33:00,VALID,0,VALID,85.0907,VALID,-0.0849042,VALID,19.6682,VALID,96,VALID,0,
2000-02-19, 00:34:00,VALID,0,VALID,84.8898,VALID,-0.101885,VALID,19.6816,VALID,96,VALID,0,
2000-02-19, 00:35:01,VALID,0,VALID,84.1128,VALID,-0.0849042,VALID,19.6843,VALID,96,VALID,0,
2000-02-19, 00:36:00,VALID,0,VALID,85.1746,VALID,-0.101885,VALID,19.697,VALID,96,VALID,0,
2000-02-19, 00:37:00,VALID,0,VALID,86.5263,VALID,-0.101885,VALID,19.6456,VALID,99,VALID,0,
2000-02-19, 00:38:00,VALID,0,VALID,86.7361,VALID,-0.0849042,VALID,19.487,VALID,101,VALID,0,
2000-02-19, 00:39:00,VALID,0,VALID,86.286,VALID,-0.101885,VALID,19.3484,VALID,91,VALID,0,
2000-02-19, 00:40:00,VALID,0,VALID,86.3737,VALID,0,VALID,19.2666,VALID,69,VALID,0,
2000-02-19, 00:41:00,VALID,0,VALID,86.7857,VALID,0.0169808,VALID,19.2371,VALID,64,VALID,0,
2000-02-19, 00:42:00,VALID,0,VALID,87.2804,VALID,0.0169808,VALID,19.2475,VALID,61,VALID,0,
2000-02-19, 00:43:00,VALID,0,VALID,87.0553,VALID,0,VALID,19.2731,VALID,55,VALID,0,
2000-02-19, 00:44:00,VALID,0,VALID,86.7679,VALID,0,VALID,19.3116,VALID,51,VALID,0,
2000-02-19, 00:45:00,VALID,0,VALID,86.9193,VALID,0.0169808,VALID,19.3213,VALID,51,VALID,0,
2000-02-19, 00:46:00,VALID,0,VALID,86.6993,VALID,0,VALID,19.3377,VALID,51,VALID,0,
2000-02-19, 00:47:01,VALID,0,VALID,86.6064,VALID,0.0169808,VALID,19.3248,VALID,51,VALID,0,
2000-02-19, 00:48:00,VALID,0,VALID,86.9231,VALID,0,VALID,19.3052,VALID,51,VALID,0,
2000-02-19, 00:49:00,VALID,0,VALID,87.4152,VALID,0,VALID,19.3156,VALID,51,VALID,0,
2000-02-19, 00:50:00,VALID,0,VALID,87.7522,VALID,0.0169808,VALID,19.2793,VALID,51,VALID,0,
2000-02-19, 00:51:00,VALID,0,VALID,87.55,VALID,0,VALID,19.2662,VALID,51,VALID,0,
2000-02-19, 00:52:00,VALID,0,VALID,86.8735,VALID,0,VALID,19.3084,VALID,51,VALID,0,
2000-02-19, 00:53:00,VALID,0,VALID,86.5861,VALID,0.0339617,VALID,19.3442,VALID,51,VALID,0,
2000-02-19, 00:54:00,VALID,0,VALID,86.0406,VALID,0.0169808,VALID,19.3794,VALID,51,VALID,0,
2000-02-19, 00:55:00,VALID,0,VALID,86.2618,VALID,0.0339617,VALID,19.4373,VALID,51,VALID,0,
2000-02-19, 00:56:00,VALID,0,VALID,86.3776,VALID,0.0339617,VALID,19.4925,VALID,51,VALID,0,
2000-02-19, 00:57:00,VALID,0,VALID,85.6108,VALID,0.0169808,VALID,19.4987,VALID,51,VALID,0,
2000-02-19, 00:58:01,VALID,0,VALID,86.6904,VALID,0.0509425,VALID,19.4729,VALID,51,VALID,0,
2000-02-19, 00:59:00,VALID,0,VALID,85.6629,VALID,0.0169808,VALID,19.4505,VALID,60,VALID,0,
2000-02-19, 01:00:00,VALID,0,VALID,86.7972,VALID,0.0339617,VALID,19.4473,VALID,89,VALID,0,
2000-02-19, 01:01:00,VALID,0,VALID,86.4767,VALID,0,VALID,19.3891,VALID,92,VALID,0,
2000-02-19, 01:02:00,VALID,0,VALID,86.7056,VALID,0,VALID,19.3442,VALID,92,VALID,0,
2000-02-19, 01:03:00,VALID,0,VALID,86.6967,VALID,0.0509425,VALID,19.3208,VALID,92,VALID,0,
2000-02-19, 01:04:00,VALID,0,VALID,86.8328,VALID,0,VALID,19.3216,VALID,110,VALID,0,
2000-02-19, 01:05:00,VALID,0,VALID,87.0286,VALID,0.0339617,VALID,19.2955,VALID,111,VALID,0,
2000-02-19, 01:06:00,VALID,0,VALID,87.4266,VALID,0.0339617,VALID,19.2761,VALID,117,VALID,0,
2000-02-19, 01:07:00,VALID,0,VALID,87.7394,VALID,0,VALID,19.2214,VALID,116,VALID,0,
2000-02-19, 01:08:00,VALID,0,VALID,88.1883,VALID,0.0339617,VALID,19.1402,VALID,111,VALID,0,
2000-02-19, 01:09:01,VALID,0,VALID,88.243,VALID,0.0339617,VALID,19.0989,VALID,114,VALID,0,
2000-02-19, 01:10:00,VALID,0,VALID,88.0942,VALID,0,VALID,19.0729,VALID,93,VALID,0,
2000-02-19, 01:11:00,VALID,0,VALID,88.786,VALID,0.0339617,VALID,19.047,VALID,93,VALID,0,
2000-02-19, 01:12:00,VALID,0,VALID,88.4604,VALID,0,VALID,19.0113,VALID,99,VALID,0,
2000-02-19, 01:13:00,VALID,0,VALID,87.2244,VALID,0.0169808,VALID,19.0269,VALID,81,VALID,0,
2000-02-19, 01:14:00,VALID,0,VALID,87.1876,VALID,0.0509425,VALID,19.1211,VALID,74,VALID,0,
2000-02-19, 01:15:00,VALID,0,VALID,86.3305,VALID,0,VALID,19.2053,VALID,74,VALID,0,
2000-02-19, 01:16:00,VALID,0,VALID,87.2868,VALID,0,VALID,19.2761,VALID,96,VALID,0,
2000-02-19, 01:17:00,VALID,0,VALID,86.698,VALID,0.0169808,VALID,19.2696,VALID,110,VALID,0.264803,
2000-02-19, 01:18:00,VALID,0,VALID,85.9834,VALID,0.0169808,VALID,19.3347,VALID,98,VALID,0.680489,
2000-02-19, 01:19:01,VALID,0,VALID,85.9706,VALID,0.0509425,VALID,19.3732,VALID,91,VALID,0.413281,
2000-02-19, 01:20:01,VALID,0,VALID,85.523,VALID,0.0339617,VALID,19.4016,VALID,88,VALID,1.02858,
2000-02-19, 01:21:00,VALID,0,VALID,85.078,VALID,0.0169808,VALID,19.4607,VALID,103,VALID,1.21299,
2000-02-19, 01:22:00,VALID,0,VALID,84.582,VALID,0.0169808,VALID,19.5703,VALID,94,VALID,0.655633,
2000-02-19, 01:23:00,VALID,0,VALID,85.6286,VALID,0.0169808,VALID,19.5889,VALID,8,VALID,0.226563,
2000-02-19, 01:24:00,VALID,0,VALID,85.3399,VALID,0.0339617,VALID,19.5896,VALID,19,VALID,0.286914,
2000-02-19, 01:25:00,VALID,0,VALID,85.5014,VALID,-0.0509425,VALID,19.5996,VALID,119,VALID,0.00422297,
2000-02-19, 01:26:00,VALID,0,VALID,85.2738,VALID,-0.0679233,VALID,19.6229,VALID,113,VALID,0,
2000-02-19, 01:27:00,VALID,0,VALID,85.6883,VALID,-0.0339617,VALID,19.6525,VALID,107,VALID,0.184696,
2000-02-19, 01:28:00,VALID,0,VALID,85.1848,VALID,-0.0509425,VALID,19.6167,VALID,90,VALID,1.56044,
2000-02-19, 01:29:00,VALID,0,VALID,84.8389,VALID,-0.0509425,VALID,19.6132,VALID,94,VALID,1.19798,
2000-02-19, 01:30:01,VALID,0,VALID,84.8656,VALID,-0.101885,VALID,19.6396,VALID,70,VALID,0.265024,
2000-02-19, 01:31:01,VALID,0,VALID,84.4282,VALID,-0.0509425,VALID,19.6684,VALID,103,VALID,0.934122,
2000-02-19, 01:32:00,VALID,0,VALID,84.6418,VALID,-0.0339617,VALID,19.6714,VALID,93,VALID,0.953125,
2000-02-19, 01:33:00,VALID,0,VALID,84.3811,VALID,-0.0849042,VALID,19.6781,VALID,102,VALID,0.445313,
2000-02-19, 01:34:00,VALID,0,VALID,84.5617,VALID,-0.0339617,VALID,19.6714,VALID,83,VALID,0.753167,
2000-02-19, 01:35:00,VALID,0,VALID,84.7613,VALID,-0.0849042,VALID,19.652,VALID,80,VALID,0.878516,
2000-02-19, 01:36:00,VALID,0,VALID,84.7207,VALID,-0.101885,VALID,19.6746,VALID,84,VALID,0.592348,
2000-02-19, 01:37:00,VALID,0,VALID,84.9343,VALID,-0.101885,VALID,19.6523,VALID,96,VALID,0.970954,
2000-02-19, 01:38:00,VALID,0,VALID,85.3857,VALID,-0.0849042,VALID,19.652,VALID,102,VALID,0.371429,
2000-02-19, 01:39:00,VALID,0,VALID,85.6527,VALID,-0.0509425,VALID,19.6292,VALID,108,VALID,0.00976563,
2000-02-19, 01:40:00,VALID,0,VALID,86.2288,VALID,-0.0339617,VALID,19.613,VALID,128,VALID,0,
2000-02-19, 01:41:00,VALID,0,VALID,86.7692,VALID,-0.0509425,VALID,19.5581,VALID,122,VALID,0,
2000-02-19, 01:42:00,VALID,0,VALID,86.024,VALID,-0.0679233,VALID,19.53,VALID,117,VALID,0.151296,
2000-02-19, 01:43:00,VALID,0,VALID,86.431,VALID,-0.0849042,VALID,19.4808,VALID,113,VALID,0.251172,
2000-02-19, 01:44:00,VALID,0,VALID,86.8112,VALID,-0.101885,VALID,19.4453,VALID,107,VALID,0.195713,
2000-02-19, 01:45:00,VALID,0,VALID,86.9142,VALID,-0.0509425,VALID,19.4259,VALID,108,VALID,0.152114,
2000-02-19, 01:46:00,VALID,0,VALID,87.138,VALID,-0.0679233,VALID,19.4259,VALID,108,VALID,0.14597,
2000-02-19, 01:47:00,VALID,0,VALID,87.6517,VALID,-0.0509425,VALID,19.403,VALID,108,VALID,0.201746,
2000-02-19, 01:48:00,VALID,0,VALID,87.1367,VALID,-0.0849042,VALID,19.3807,VALID,108,VALID,0.416071,
2000-02-19, 01:49:00,VALID,0,VALID,87.3198,VALID,-0.0509425,VALID,19.3449,VALID,110,VALID,0.330798,
2000-02-19, 01:50:00,VALID,0,VALID,87.6695,VALID,-0.101885,VALID,19.3195,VALID,103,VALID,0.464738,
2000-02-19, 01:51:00,VALID,0,VALID,86.8112,VALID,-0.0679233,VALID,19.2964,VALID,109,VALID,0.991787,
2000-02-19, 01:52:01,VALID,0,VALID,86.375,VALID,-0.101885,VALID,19.3094,VALID,77,VALID,0.847451,
2000-02-19, 01:53:00,VALID,0,VALID,86.0991,VALID,-0.0339617,VALID,19.416,VALID,95,VALID,0.825041,
2000-02-19, 01:54:00,VALID,0,VALID,86.5301,VALID,-0.0679233,VALID,19.4679,VALID,93,VALID,0.514423,
2000-02-19, 01:55:00,VALID,0,VALID,86.2733,VALID,-0.0679233,VALID,19.4741,VALID,88,VALID,0.31543,
2000-02-19, 01:56:00,VALID,0,VALID,86.1359,VALID,-0.0169808,VALID,19.444,VALID,32,VALID,0.0690789,
2000-02-19, 01:57:00,VALID,0,VALID,86.0444,VALID,-0.0679233,VALID,19.4781,VALID,264,VALID,0.234992,
2000-02-19, 01:58:00,VALID,0,VALID,84.5274,VALID,-0.0509425,VALID,19.5131,VALID,18,VALID,0.704564,
2000-02-19, 01:59:00,VALID,0,VALID,84.488,VALID,-0.0169808,VALID,19.655,VALID,84,VALID,0.524439,
2000-02-19, 02:00:00,VALID,0,VALID,86.052,VALID,-0.0679233,VALID,19.7067,VALID,139,VALID,0.0511719,
2000-02-19, 02:01:00,VALID,0,VALID,85.2636,VALID,-0.0849042,VALID,19.694,VALID,208,VALID,0,
2000-02-19, 02:02:00,VALID,0,VALID,85.9643,VALID,-0.0509425,VALID,19.7104,VALID,96,VALID,0.216964,
2000-02-19, 02:03:01,VALID,0,VALID,86.3165,VALID,-0.101885,VALID,19.7005,VALID,89,VALID,0,
2000-02-19, 02:04:00,VALID,0,VALID,85.167,VALID,-0.0509425,VALID,19.6682,VALID,81,VALID,0.119038,
2000-02-19, 02:05:00,VALID,0,VALID,84.7194,VALID,-0.0679233,VALID,19.6776,VALID,99,VALID,0.435023,
2000-02-19, 02:06:00,VALID,0,VALID,86.2542,VALID,-0.0509425,VALID,19.6873,VALID,110,VALID,0.0410657,
2000-02-19, 02:07:00,VALID,0,VALID,86.3699,VALID,-0.0679233,VALID,19.6784,VALID,111,VALID,0,
2000-02-19, 02:08:00,VALID,0,VALID,86.8341,VALID,-0.0849042,VALID,19.6485,VALID,111,VALID,0,
2000-02-19, 02:09:00,VALID,0,VALID,87.0642,VALID,-0.135847,VALID,19.607,VALID,117,VALID,0.00422297,
2000-02-19, 02:10:00,VALID,0,VALID,87.1825,VALID,-0.0169808,VALID,19.577,VALID,122,VALID,0,
2000-02-19, 02:11:00,VALID,0,VALID,86.9065,VALID,0.0169808,VALID,19.5407,VALID,122,VALID,0,
2000-02-19, 02:12:00,VALID,0,VALID,87.6415,VALID,0.0339617,VALID,19.5084,VALID,122,VALID,0,
2000-02-19, 02:13:00,VALID,0,VALID,87.7789,VALID,0,VALID,19.4597,VALID,122,VALID,0,
2000-02-19, 02:14:01,VALID,0,VALID,88.1565,VALID,0.0509425,VALID,19.4373,VALID,122,VALID,0,
2000-02-19, 02:15:00,VALID,0,VALID,88.711,VALID,0.0169808,VALID,19.3919,VALID,122,VALID,0,
2000-02-19, 02:16:00,VALID,0,VALID,88.9335,VALID,0.0169808,VALID,19.334,VALID,122,VALID,0,
2000-02-19, 02:17:00,VALID,0,VALID,89.259,VALID,0.0169808,VALID,19.2595,VALID,122,VALID,0,
2000-02-19, 02:18:00,VALID,0,VALID,89.2094,VALID,0,VALID,19.1852,VALID,122,VALID,0,
2000-02-19, 02:19:00,VALID,0,VALID,89.0085,VALID,0.0509425,VALID,19.1278,VALID,122,VALID,0,
2000-02-19, 02:20:00,VALID,0,VALID,88.3587,VALID,0.0679233,VALID,19.0694,VALID,122,VALID,0,
2000-02-19, 02:21:00,VALID,0,VALID,88.215,VALID,0.0339617,VALID,19.0403,VALID,122,VALID,0,
2000-02-19, 02:22:00,VALID,0,VALID,88.594,VALID,0.0169808,VALID,19.0142,VALID,122,VALID,0,
2000-02-19, 02:23:00,VALID,0,VALID,89.4561,VALID,0.0169808,VALID,18.9949,VALID,122,VALID,0,
2000-02-19, 02:24:00,VALID,0,VALID,89.1878,VALID,0.0339617,VALID,18.9658,VALID,122,VALID,0,
2000-02-19, 02:25:00,VALID,0,VALID,89.0492,VALID,-0.0509425,VALID,18.9481,VALID,122,VALID,0,
2000-02-19, 02:26:00,VALID,0,VALID,89.0492,VALID,-0.101885,VALID,18.919,VALID,122,VALID,0,
2000-02-19, 02:27:00,VALID,0,VALID,89.1789,VALID,-0.0679233,VALID,18.8994,VALID,122,VALID,0,
2000-02-19, 02:28:00,VALID,0,VALID,89.4726,VALID,-0.0849042,VALID,18.887,VALID,122,VALID,0,
2000-02-19, 02:29:00,VALID,0,VALID,89.4739,VALID,-0.0679233,VALID,18.8452,VALID,122,VALID,0,
2000-02-19, 02:30:00,VALID,0,VALID,88.73,VALID,-0.101885,VALID,18.8159,VALID,122,VALID,0,
2000-02-19, 02:31:00,VALID,0,VALID,89.0416,VALID,-0.101885,VALID,18.8028,VALID,122,VALID,0,
2000-02-19, 02:32:00,VALID,0,VALID,89.259,VALID,-0.0849042,VALID,18.7868,VALID,122,VALID,0,
2000-02-19, 02:33:00,VALID,0,VALID,89.9139,VALID,-0.0849042,VALID,18.761,VALID,122,VALID,0,
2000-02-19, 02:34:00,VALID,0,VALID,90.0449,VALID,-0.101885,VALID,18.7287,VALID,122,VALID,0,
2000-02-19, 02:35:01,VALID,0,VALID,90.2585,VALID,-0.118866,VALID,18.6939,VALID,122,VALID,0,
2000-02-19, 02:36:01,VALID,0,VALID,90.4505,VALID,-0.101885,VALID,18.6616,VALID,122,VALID,0,
2000-02-19, 02:37:00,VALID,0,VALID,90.3806,VALID,-0.101885,VALID,18.6261,VALID,122,VALID,0,
2000-02-19, 02:38:00,VALID,0,VALID,90.6578,VALID,-0.0849042,VALID,18.5901,VALID,122,VALID,0,
2000-02-19, 02:39:00,VALID,0,VALID,90.7557,VALID,-0.118866,VALID,18.5645,VALID,122,VALID,0,
2000-02-19, 02:40:00,VALID,0,VALID,90.7417,VALID,-0.101885,VALID,18.5548,VALID,122,VALID,0,
2000-02-19, 02:41:00,VALID,0,VALID,90.3844,VALID,-0.101885,VALID,18.5386,VALID,122,VALID,0,
2000-02-19, 02:42:00,VALID,0,VALID,90.42,VALID,-0.0849042,VALID,18.522,VALID,122,VALID,0,
2000-02-19, 02:43:00,VALID,0,VALID,90.4645,VALID,-0.101885,VALID,18.5098,VALID,122,VALID,0,
2000-02-19, 02:44:00,VALID,0,VALID,90.673,VALID,-0.0849042,VALID,18.4738,VALID,122,VALID,0,
2000-02-19, 02:45:00,VALID,0,VALID,90.9185,VALID,-0.101885,VALID,18.4581,VALID,122,VALID,0,
2000-02-19, 02:46:00,VALID,0,VALID,91.038,VALID,-0.101885,VALID,18.4226,VALID,122,VALID,0,
2000-02-19, 02:47:01,VALID,0,VALID,91.0952,VALID,-0.101885,VALID,18.4194,VALID,122,VALID,0,
2000-02-19, 02:48:00,VALID,0,VALID,90.7442,VALID,-0.101885,VALID,18.4002,VALID,122,VALID,0,
2000-02-19, 02:49:00,VALID,0,VALID,90.8027,VALID,-0.101885,VALID,18.4261,VALID,122,VALID,0,
2000-02-19, 02:50:00,VALID,0,VALID,91.0265,VALID,-0.101885,VALID,18.4159,VALID,122,VALID,0,
2000-02-19, 02:51:00,VALID,0,VALID,91.2262,VALID,-0.0849042,VALID,18.4097,VALID,122,VALID,0,
2000-02-19, 02:52:00,VALID,0,VALID,90.5891,VALID,-0.101885,VALID,18.3896,VALID,122,VALID,0,
2000-02-19, 02:53:00,VALID,0,VALID,90.6273,VALID,-0.101885,VALID,18.4129,VALID,122,VALID,0,
2000-02-19, 02:54:00,VALID,0,VALID,90.6565,VALID,-0.101885,VALID,18.4159,VALID,122,VALID,0,
2000-02-19, 02:55:00,VALID,0,VALID,90.9591,VALID,-0.0169808,VALID,18.3762,VALID,122,VALID,0.415234,
2000-02-19, 02:56:00,VALID,0,VALID,91.319,VALID,0.0169808,VALID,18.2985,VALID,122,VALID,0,
2000-02-19, 02:57:00,VALID,0,VALID,91.2173,VALID,0,VALID,18.2598,VALID,121,VALID,0,
2000-02-19, 02:58:00,VALID,0,VALID,91.113,VALID,0,VALID,18.2759,VALID,124,VALID,0,
2000-02-19, 02:59:00,VALID,0,VALID,90.8345,VALID,0,VALID,18.3278,VALID,125,VALID,0,
2000-02-19, 03:00:00,VALID,0,VALID,90.8689,VALID,0,VALID,18.367,VALID,125,VALID,0,
2000-02-19, 03:01:00,VALID,0,VALID,90.7074,VALID,0,VALID,18.3832,VALID,125,VALID,0,
2000-02-19, 03:02:00,VALID,0,VALID,90.6056,VALID,0,VALID,18.376,VALID,125,VALID,0,
2000-02-19, 03:03:00,VALID,0,VALID,90.6908,VALID,0,VALID,18.3864,VALID,125,VALID,0,
2000-02-19, 03:04:00,VALID,0,VALID,90.8155,VALID,0,VALID,18.3733,VALID,126,VALID,0,
2000-02-19, 03:05:00,VALID,0,VALID,90.963,VALID,-0.0169808,VALID,18.3248,VALID,126,VALID,0,
2000-02-19, 03:06:00,VALID,0,VALID,91.0456,VALID,-0.0169808,VALID,18.2895,VALID,126,VALID,0,
2000-02-19, 03:07:00,VALID,0,VALID,90.7862,VALID,0,VALID,18.2863,VALID,126,VALID,0,
2000-02-19, 03:08:00,VALID,0,VALID,90.6743,VALID,-0.0169808,VALID,18.3087,VALID,126,VALID,0,
2000-02-19, 03:09:00,VALID,0,VALID,90.5179,VALID,-0.0169808,VALID,18.3511,VALID,124,VALID,0,
2000-02-19, 03:10:00,VALID,0,VALID,90.5624,VALID,0,VALID,18.3735,VALID,123,VALID,0,
2000-02-19, 03:11:00,VALID,0,VALID,90.0296,VALID,-0.0169808,VALID,18.3666,VALID,119,VALID,0,
2000-02-19, 03:12:00,VALID,0,VALID,89.3366,VALID,0,VALID,18.4738,VALID,108,VALID,0,
2000-02-19, 03:13:00,VALID,0,VALID,88.8279,VALID,0,VALID,18.5705,VALID,102,VALID,0,
2000-02-19, 03:14:00,VALID,0,VALID,88.2239,VALID,-0.0339617,VALID,18.687,VALID,81,VALID,0,
2000-02-19, 03:15:00,VALID,0,VALID,88.0014,VALID,0,VALID,18.7737,VALID,81,VALID,0,
2000-02-19, 03:16:00,VALID,0,VALID,88.4426,VALID,0.0169808,VALID,18.7933,VALID,90,VALID,0,
2000-02-19, 03:17:00,VALID,0,VALID,87.9976,VALID,0,VALID,18.7638,VALID,97,VALID,0.644626,
2000-02-19, 03:18:00,VALID,0,VALID,88.3231,VALID,0,VALID,18.767,VALID,104,VALID,0.549279,
2000-02-19, 03:19:00,VALID,0,VALID,88.1985,VALID,0,VALID,18.7412,VALID,90,VALID,0.583404,
2000-02-19, 03:20:00,VALID,0,VALID,87.9454,VALID,0,VALID,18.7583,VALID,93,VALID,0.566797,
2000-02-19, 03:21:00,VALID,0,VALID,87.5347,VALID,0,VALID,18.7931,VALID,97,VALID,0.470228,
2000-02-19, 03:22:00,VALID,0,VALID,87.2931,VALID,0,VALID,18.8447,VALID,96,VALID,0.493032,
2000-02-19, 03:23:00,VALID,0,VALID,87.1888,VALID,0,VALID,18.9098,VALID,96,VALID,0.394336,
2000-02-19, 03:24:00,VALID,0,VALID,86.9638,VALID,0.0169808,VALID,18.9292,VALID,98,VALID,0.376402,
2000-02-19, 03:25:00,VALID,0,VALID,86.7133,VALID,0,VALID,18.9583,VALID,114,VALID,0.404247,
2000-02-19, 03:26:00,VALID,0,VALID,86.3013,VALID,0,VALID,18.9896,VALID,114,VALID,0.232366,
2000-02-19, 03:27:00,VALID,0,VALID,86.23,VALID,0.0169808,VALID,19.0549,VALID,115,VALID,0,
2000-02-19, 03:28:00,VALID,0,VALID,86.3254,VALID,0.0339617,VALID,19.0771,VALID,119,VALID,0,
2000-02-19, 03:29:00,VALID,0,VALID,86.1309,VALID,0.0169808,VALID,19.0674,VALID,120,VALID,0,
2000-02-19, 03:30:00,VALID,0,VALID,86.033,VALID,0,VALID,19.0773,VALID,120,VALID,0,
2000-02-19, 03:31:01,VALID,0,VALID,85.9846,VALID,0.0509425,VALID,19.0972,VALID,120,VALID,0,
2000-02-19, 03:32:00,VALID,0,VALID,86.2364,VALID,0.0169808,VALID,19.1036,VALID,120,VALID,0,
2000-02-19, 03:33:00,VALID,0,VALID,86.2517,VALID,0.0169808,VALID,19.0967,VALID,120,VALID,0,
2000-02-19, 03:34:00,VALID,0,VALID,86.4297,VALID,0.0509425,VALID,19.0865,VALID,120,VALID,0,
2000-02-19, 03:35:00,VALID,0,VALID,87.0464,VALID,0.0169808,VALID,19.0835,VALID,120,VALID,0,
2000-02-19, 03:36:00,VALID,0,VALID,86.8531,VALID,0.0169808,VALID,19.0577,VALID,120,VALID,0,
2000-02-19, 03:37:00,VALID,0,VALID,86.3521,VALID,0,VALID,18.9995,VALID,103,VALID,0,
2000-02-19, 03:38:00,VALID,0,VALID,86.5607,VALID,0,VALID,19.0065,VALID,89,VALID,0,
2000-02-19, 03:39:00,VALID,0,VALID,86.7247,VALID,0.0339617,VALID,19.0157,VALID,100,VALID,0,
2000-02-19, 03:40:00,VALID,0,VALID,86.7463,VALID,0.0169808,VALID,18.9995,VALID,100,VALID,0,
2000-02-19, 03:41:01,VALID,0,VALID,86.108,VALID,0.0339617,VALID,18.9995,VALID,96,VALID,0.216694,
2000-02-19, 03:42:00,VALID,0,VALID,86.8086,VALID,0.0339617,VALID,19.0189,VALID,82,VALID,0.047476,
2000-02-19, 03:43:00,VALID,0,VALID,86.4666,VALID,0.0169808,VALID,18.9961,VALID,86,VALID,0.130469,
2000-02-19, 03:44:00,VALID,0,VALID,85.9732,VALID,0.0169808,VALID,19.0127,VALID,195,VALID,0.149877,
2000-02-19, 03:45:00,VALID,0,VALID,86.3979,VALID,0.0339617,VALID,19.0805,VALID,166,VALID,0.00616776,
2000-02-19, 03:46:00,VALID,0,VALID,86.4068,VALID,0.0169808,VALID,19.1034,VALID,166,VALID,0,
2000-02-19, 03:47:00,VALID,0,VALID,85.7863,VALID,0.0339617,VALID,19.0833,VALID,166,VALID,0,
2000-02-19, 03:48:00,VALID,0,VALID,85.5714,VALID,0.0509425,VALID,19.1098,VALID,166,VALID,0,
2000-02-19, 03:49:00,VALID,0,VALID,85.139,VALID,0.0339617,VALID,19.132,VALID,166,VALID,0.0221706,
2000-02-19, 03:50:00,VALID,0,VALID,85.2039,VALID,0,VALID,19.1546,VALID,165,VALID,0,
2000-02-19, 03:51:00,VALID,0,VALID,85.3488,VALID,0,VALID,19.171,VALID,164,VALID,0,
2000-02-19, 03:52:00,VALID,0,VALID,85.8549,VALID,0.0169808,VALID,19.171,VALID,162,VALID,0,
2000-02-19, 03:53:01,VALID,0,VALID,85.4544,VALID,0.0169808,VALID,19.1416,VALID,162,VALID,0,
2000-02-19, 03:54:00,VALID,0,VALID,85.3819,VALID,0.0169808,VALID,19.1285,VALID,160,VALID,0,
2000-02-19, 03:55:00,VALID,0,VALID,85.4874,VALID,-0.0169808,VALID,19.1493,VALID,155,VALID,0,
2000-02-19, 03:56:00,VALID,0,VALID,86.0508,VALID,-0.101885,VALID,19.1659,VALID,143,VALID,0,
2000-02-19, 03:57:00,VALID,0,VALID,86.6637,VALID,-0.0849042,VALID,19.1237,VALID,135,VALID,0,
2000-02-19, 03:58:00,VALID,0,VALID,86.8341,VALID,-0.0679233,VALID,19.0494,VALID,135,VALID,0,
2000-02-19, 03:59:00,VALID,0,VALID,86.3305,VALID,-0.0679233,VALID,19.0007,VALID,130,VALID,0.0667969,
2000-02-19, 04:00:00,VALID,0,VALID,86.3725,VALID,-0.0849042,VALID,19.0042,VALID,112,VALID,0.373798,
2000-02-19, 04:01:00,VALID,0,VALID,86.024,VALID,-0.0849042,VALID,19.0298,VALID,97,VALID,0.379006,
2000-02-19, 04:02:01,VALID,0,VALID,87.0731,VALID,-0.101885,VALID,19.0564,VALID,106,VALID,0.337723,
2000-02-19, 04:03:00,VALID,0,VALID,86.3254,VALID,-0.0679233,VALID,19.0042,VALID,100,VALID,0.400195,
2000-02-19, 04:04:01,VALID,0,VALID,86.5619,VALID,-0.101885,VALID,18.9947,VALID,93,VALID,0.52611,
2000-02-19, 04:05:00,VALID,0,VALID,86.8913,VALID,-0.0509425,VALID,18.9622,VALID,87,VALID,0.491365,
2000-02-19, 04:06:00,VALID,0,VALID,86.5696,VALID,-0.101885,VALID,18.9431,VALID,101,VALID,0.541159,
2000-02-19, 04:07:00,VALID,0,VALID,86.6726,VALID,-0.101885,VALID,18.9431,VALID,96,VALID,0.666406,
2000-02-19, 04:08:00,VALID,0,VALID,86.3597,VALID,-0.101885,VALID,18.9654,VALID,83,VALID,0.374199,
2000-02-19, 04:09:00,VALID,0,VALID,86.1881,VALID,-0.0849042,VALID,19.0137,VALID,94,VALID,0.550322,
2000-02-19, 04:10:00,VALID,0,VALID,86.745,VALID,-0.0339617,VALID,19.0385,VALID,106,VALID,0.440995,
2000-02-19, 04:11:00,VALID,0,VALID,86.5696,VALID,0,VALID,19.0187,VALID,108,VALID,0.121324,
2000-02-19, 04:12:00,VALID,0,VALID,86.2784,VALID,0,VALID,19.042,VALID,105,VALID,0.521429,
2000-02-19, 04:13:00,VALID,0,VALID,86.3521,VALID,0.0169808,VALID,19.0542,VALID,101,VALID,0.339021,
2000-02-19, 04:14:00,VALID,0,VALID,86.0291,VALID,0.0169808,VALID,19.0674,VALID,101,VALID,0.344595,
2000-02-19, 04:15:01,VALID,0,VALID,86.3597,VALID,0.0169808,VALID,19.087,VALID,104,VALID,0.340946,